User: anonymous   Login
Location: Caltech
(34.1382°N, 118.1253°W)
Time: 16:11:25
(UTC-07:00)
Language:

Gbstr 26 Del rocket - Orbit

View from above orbital plane
View from above orbital plane
View from above satellite
View from above satellite

Ground track
Ground track

The orbit data is extracted from the following two-line orbital elements,

1 25876U 99041E   16181.68264917 -.00000126  00000-0  20914-4 0  9991
2 25876  51.7637 267.3695 0533297  80.8615 285.2227 14.03834612865104
Epoch (UTC): 29 June 2016 16:23:00
Eccentricity: 0.0533297
inclination: 51.7637°
perigee height: 493 km
apogee height: 1267 km
right ascension of ascending node: 267.3695°
argument of perigee: 80.8615°
revolutions per day: 14.03834612
mean anomaly at epoch: 285.2227°
orbit number at epoch: 86510

The dashed part of the orbit path shows where the satellite is in the earth's shadow,  

DLR